When you browse on this site, cookies collect data to enhance your experience and personalize the content and advertising you see.
Visit our Privacy Policy to learn more. By continuing to use the site, you agree to this use of cookies and data.
  • In Sweden
  • List of Countries
  • For 7 days
  • Water Temperature
  • Weather Map
  • Weather Widgets
  • user-avatar
    Login

    Hourly Weather Chipping Sodbury

    Today, 21 September, Saturday

    Time Temperature Precipitation Wind Pressure Humidity
    00:00 +12°C° 0 mm 5 mps 752 mmHg 66%
    01:00 +12°C° 0 mm 5 mps 751 mmHg 69%
    02:00 +12°C° 0 mm 5 mps 751 mmHg 71%
    03:00 +10°C° 0 mm 5 mps 750 mmHg 74%
    04:00 +10°C° 0 mm 5 mps 750 mmHg 76%
    05:00 +11°C° 0 mm 4 mps 749 mmHg 77%
    06:00 +11°C° 0 mm 4 mps 749 mmHg 79%
    07:00 +12°C° 0 mm 5 mps 749 mmHg 75%
    08:00 +14°C° 0 mm 5 mps 749 mmHg 71%
    09:00 +16°C° 0 mm 5 mps 749 mmHg 67%
    10:00 +17°C° 0 mm 5 mps 748 mmHg 65%
    11:00 +20°C° 0 mm 6 mps 748 mmHg 62%
    12:00 +22°C° 0 mm 6 mps 748 mmHg 60%
    13:00 +22°C° 0 mm 6 mps 747 mmHg 60%
    14:00 +22°C° 0 mm 6 mps 747 mmHg 61%
    15:00 +23°C° 0 mm 6 mps 746 mmHg 62%
    16:00 +22°C° 0 mm 5 mps 746 mmHg 67%
    17:00 +20°C° 0 mm 5 mps 745 mmHg 72%
    18:00 +19°C° 0 mm 4 mps 745 mmHg 76%
    19:00 +19°C° 0.4 mm 4 mps 745 mmHg 79%
    20:00 +17°C° 0.4 mm 5 mps 745 mmHg 81%
    21:00 +17°C° 0.4 mm 5 mps 744 mmHg 84%
    22:00 +17°C° 0.3 mm 5 mps 744 mmHg 86%
    23:00 +18°C° 0.3 mm 4 mps 744 mmHg 89%

    Tomorrow, 22 September, Sunday

    Time Temperature Precipitation Wind Pressure Humidity
    00:00 +18°C° 0.3 mm 4 mps 743 mmHg 91%
    01:00 +18°C° 0.1 mm 4 mps 743 mmHg 92%
    02:00 +18°C° 0.1 mm 3 mps 742 mmHg 93%
    03:00 +17°C° 0.1 mm 3 mps 742 mmHg 93%
    04:00 +17°C° 0 mm 3 mps 742 mmHg 94%
    05:00 +17°C° 0 mm 3 mps 742 mmHg 94%
    06:00 +17°C° 0 mm 3 mps 742 mmHg 95%
    07:00 +16°C° 0.6 mm 3 mps 742 mmHg 94%
    08:00 +16°C° 0.6 mm 3 mps 742 mmHg 93%
    09:00 +14°C° 0.6 mm 4 mps 742 mmHg 92%
    10:00 +15°C° 0.2 mm 4 mps 742 mmHg 90%
    11:00 +15°C° 0.2 mm 4 mps 742 mmHg 88%
    12:00 +17°C° 0.2 mm 4 mps 742 mmHg 85%
    13:00 +16°C° 0.2 mm 5 mps 742 mmHg 81%
    14:00 +17°C° 0.2 mm 5 mps 742 mmHg 77%
    15:00 +19°C° 0.2 mm 5 mps 742 mmHg 73%
    16:00 +17°C° 0.3 mm 5 mps 742 mmHg 78%
    17:00 +17°C° 0.3 mm 4 mps 743 mmHg 82%
    18:00 +14°C° 0.3 mm 3 mps 743 mmHg 87%
    19:00 +14°C° 0.1 mm 3 mps 743 mmHg 89%
    20:00 +13°C° 0.1 mm 4 mps 744 mmHg 91%
    21:00 +13°C° 0.1 mm 4 mps 744 mmHg 93%
    22:00 +13°C° 0 mm 4 mps 745 mmHg 92%
    23:00 +12°C° 0 mm 4 mps 745 mmHg 91%

    Day after tomorrow, 23 September, Monday

    Time Temperature Precipitation Wind Pressure Humidity
    00:00 +12°C° 0 mm 4 mps 746 mmHg 90%
    01:00 +11°C° 0 mm 4 mps 746 mmHg 91%
    02:00 +11°C° 0 mm 4 mps 746 mmHg 92%
    03:00 +10°C° 0 mm 3 mps 747 mmHg 93%
    04:00 +10°C° 0 mm 3 mps 747 mmHg 93%
    05:00 +10°C° 0 mm 3 mps 747 mmHg 93%
    06:00 +9°C° 0 mm 2 mps 747 mmHg 93%
    07:00 +11°C° 0 mm 3 mps 748 mmHg 89%
    08:00 +13°C° 0 mm 3 mps 748 mmHg 84%
    09:00 +14°C° 0 mm 4 mps 748 mmHg 80%
    10:00 +15°C° 0.1 mm 5 mps 748 mmHg 77%
    11:00 +16°C° 0.1 mm 6 mps 748 mmHg 73%
    12:00 +17°C° 0.1 mm 6 mps 747 mmHg 69%
    13:00 +16°C° 0.4 mm 6 mps 747 mmHg 76%
    14:00 +15°C° 0.4 mm 6 mps 746 mmHg 84%
    15:00 +14°C° 0.4 mm 6 mps 746 mmHg 91%
    16:00 +14°C° 0.4 mm 7 mps 745 mmHg 92%
    17:00 +14°C° 0.4 mm 7 mps 745 mmHg 93%
    18:00 +15°C° 0.4 mm 7 mps 744 mmHg 94%
    19:00 +15°C° 0.5 mm 7 mps 744 mmHg 94%
    20:00 +15°C° 0.5 mm 6 mps 744 mmHg 94%
    21:00 +16°C° 0.5 mm 6 mps 744 mmHg 95%
    22:00 +16°C° 0.5 mm 5 mps 743 mmHg 95%
    23:00 +16°C° 0.5 mm 5 mps 743 mmHg 95%

    24 September, Tuesday

    Time Temperature Precipitation Wind Pressure Humidity
    00:00 +17°C° 0.5 mm 4 mps 742 mmHg 96%
    01:00 +16°C° 1 mm 5 mps 741 mmHg 95%
    02:00 +16°C° 1 mm 5 mps 741 mmHg 95%
    03:00 +16°C° 1 mm 5 mps 740 mmHg 95%
    04:00 +16°C° 1.1 mm 5 mps 739 mmHg 95%
    05:00 +17°C° 1.1 mm 4 mps 739 mmHg 95%
    06:00 +15°C° 1.1 mm 4 mps 738 mmHg 95%
    07:00 +15°C° 4.3 mm 4 mps 738 mmHg 95%
    08:00 +15°C° 4.3 mm 5 mps 738 mmHg 94%
    09:00 +14°C° 4.3 mm 6 mps 737 mmHg 93%
    10:00 +15°C° 0.5 mm 6 mps 738 mmHg 88%
    11:00 +16°C° 0.5 mm 7 mps 738 mmHg 84%
    12:00 +16°C° 0.5 mm 8 mps 738 mmHg 79%
    13:00 +16°C° 0.2 mm 8 mps 738 mmHg 80%
    14:00 +16°C° 0.2 mm 8 mps 738 mmHg 81%
    15:00 +16°C° 0.2 mm 8 mps 739 mmHg 82%
    16:00 +16°C° 0.4 mm 7 mps 739 mmHg 84%
    17:00 +15°C° 0.4 mm 7 mps 739 mmHg 86%
    18:00 +14°C° 0.4 mm 6 mps 739 mmHg 88%
    19:00 +14°C° 0.1 mm 6 mps 739 mmHg 88%
    20:00 +14°C° 0.1 mm 6 mps 738 mmHg 89%
    21:00 +13°C° 0.1 mm 6 mps 738 mmHg 89%
    22:00 +12°C° 0.5 mm 7 mps 738 mmHg 90%
    23:00 +12°C° 0.5 mm 7 mps 737 mmHg 91%

    25 September, Wednesday

    Time Temperature Precipitation Wind Pressure Humidity
    00:00 +12°C° 0.5 mm 8 mps 736 mmHg 92%
    01:00 +13°C° 0.9 mm 8 mps 736 mmHg 93%
    02:00 +14°C° 0.9 mm 7 mps 735 mmHg 93%
    03:00 +14°C° 0.9 mm 7 mps 735 mmHg 93%
    04:00 +14°C° 0.8 mm 7 mps 735 mmHg 93%
    05:00 +15°C° 0.8 mm 8 mps 735 mmHg 92%
    06:00 +15°C° 0.8 mm 8 mps 735 mmHg 91%
    07:00 +15°C° 0.1 mm 8 mps 736 mmHg 89%
    08:00 +15°C° 0.1 mm 7 mps 736 mmHg 87%
    09:00 +15°C° 0.1 mm 7 mps 737 mmHg 85%
    10:00 +16°C° 0.1 mm 7 mps 738 mmHg 81%
    11:00 +16°C° 0.1 mm 7 mps 738 mmHg 78%
    12:00 +17°C° 0.1 mm 7 mps 739 mmHg 74%
    13:00 +17°C° 0.2 mm 7 mps 739 mmHg 75%
    14:00 +17°C° 0.2 mm 7 mps 739 mmHg 76%
    15:00 +16°C° 0.2 mm 7 mps 739 mmHg 77%
    16:00 +15°C° 0 mm 6 mps 739 mmHg 80%
    17:00 +14°C° 0 mm 5 mps 739 mmHg 83%
    18:00 +13°C° 0 mm 4 mps 739 mmHg 86%
    19:00 +13°C° 0 mm 3 mps 740 mmHg 88%
    20:00 +13°C° 0 mm 3 mps 740 mmHg 90%
    21:00 +14°C° 0 mm 2 mps 740 mmHg 91%
    22:00 +14°C° 0.1 mm 2 mps 740 mmHg 93%
    23:00 +13°C° 0.1 mm 3 mps 741 mmHg 94%

    26 September, Thursday

    Time Temperature Precipitation Wind Pressure Humidity
    00:00 +13°C° 0.1 mm 3 mps 741 mmHg 95%
    01:00 +13°C° 0.1 mm 4 mps 741 mmHg 92%
    02:00 +12°C° 0.1 mm 5 mps 742 mmHg 90%
    03:00 +11°C° 0.1 mm 6 mps 742 mmHg 87%
    04:00 +12°C° 0 mm 5 mps 742 mmHg 85%
    05:00 +11°C° 0 mm 4 mps 743 mmHg 83%
    06:00 +11°C° 0 mm 4 mps 743 mmHg 81%
    07:00 +12°C° 0 mm 4 mps 743 mmHg 80%
    08:00 +13°C° 0 mm 4 mps 744 mmHg 79%
    09:00 +14°C° 0 mm 5 mps 744 mmHg 79%
    10:00 +14°C° 0 mm 5 mps 744 mmHg 76%
    11:00 +15°C° 0 mm 5 mps 744 mmHg 74%
    12:00 +15°C° 0 mm 5 mps 745 mmHg 72%
    13:00 +15°C° 0 mm 5 mps 745 mmHg 70%
    14:00 +15°C° 0 mm 6 mps 745 mmHg 68%
    15:00 +15°C° 0 mm 6 mps 745 mmHg 66%
    16:00 +14°C° 0 mm 6 mps 745 mmHg 69%
    17:00 +13°C° 0 mm 5 mps 746 mmHg 71%
    18:00 +12°C° 0 mm 5 mps 746 mmHg 74%
    19:00 +11°C° 0 mm 4 mps 747 mmHg 77%
    20:00 +10°C° 0 mm 4 mps 747 mmHg 80%
    21:00 +10°C° 0 mm 3 mps 748 mmHg 83%
    22:00 +10°C° 0 mm 3 mps 748 mmHg 85%
    23:00 +10°C° 0 mm 3 mps 748 mmHg 87%
    Show more